Regional Weather Roundup
Issued by NWS State College, PA

Home | Current Version | Previous Version | Graphics & Text | Print | Product List | Glossary On
Versions: 1 2 3 4 5 6 7 8 9 10 11 12 13 14 15 16 17 18 19 20 21 22 23 24 25 26 27 28 29 30 31 32 33 34 35 36 37 38 39 40 41 42 43 44 45 46 47 48 49 50
000
ASUS41 KCTP 220703
RWRCTP

REGIONAL WEATHER ROUNDUP
NATIONAL WEATHER SERVICE STATE COLLEGE PA
300 AM EDT TUE JUL 22 2014

Note: "fair" indicates few or no clouds below 12,000 feet with no
significant weather and/or obstructions to visibility.

* = STATION THAT DOES NOT REPORT PRECIPITATION /E.G. RAIN...SNOW...ETC/
    THUNDER OR FOG.

PAZ002>004-007>009-013>016-020>023-029>032-220800-
WESTERN PENNSYLVANIA

CITY           SKY/WX    TMP DP  RH WIND       PRES   REMARKS
ERIE           CLEAR     67  61  81 S3        30.12F
MEADVILLE      CLEAR     68  63  84 CALM      30.16S
FRANKLIN*      CLOUDY    64  61  88 CALM      30.17F VSB 1/4
NEW CASTLE       N/A     67  67 100 CALM      30.14F FOG
BEAVER COUNTY  NOT AVBL
BUTLER*        CLEAR     70  64  83 CALM      30.15F
PITTSBURGH INT CLEAR     72  68  87 CALM      30.13F
PITTSBURGH     CLEAR     72  66  81 S7        30.13F
INDIANA*       CLOUDY    68  66  94 CALM      30.19F
LATROBE        CLEAR     72  70  94 CALM      30.15F
WASHINGTON CO* CLOUDY    64  64 100 CALM      30.14S VSB 1/2
$$

PAZ004>006-010>012-017>019-024>028-033>037-041-042-045-046-049>053-220800-
CENTRAL PENNSYLVANIA

CITY           SKY/WX    TMP DP  RH WIND       PRES   REMARKS
BRADFORD       MOCLDY    65  63  93 CALM      30.19F FOG
DUBOIS         CLEAR     68  66  93 CALM      30.17F
CLEARFIELD     FOG       63  63 100 N3        30.18F VSB 1/4
JOHNSTOWN      CLEAR     66  64  93 S5        30.20F
ALTOONA        MOCLDY    67  65  93 CALM      30.18F
STATE COLLEGE  CLOUDY    67  66  97 CALM      30.17F FOG
WILLIAMSPORT   PTCLDY    68  64  87 CALM      30.15F
SELINSGROVE    MOCLDY    66  64  93 CALM      30.16F FOG
FT INDIANTOWN  CLOUDY    67  67 100 CALM      30.18S
CAPITAL CITY   CLOUDY    71  65  81 CALM      30.17R
HARRISBURG     MOCLDY    73  65  75 CALM      30.16S
YORK           PTCLDY    64  62  93 CALM      30.17S
$$

PAZ038>040-043-044-047-048-054-055-060>062-067>071-220800-
EASTERN PENNSYLVANIA

CITY           SKY/WX    TMP DP  RH WIND       PRES   REMARKS
SCRANTON       PTCLDY    66  62  87 E3        30.17F
MOUNT POCONO   CLEAR     64  61  90 NW5       30.21F
ALLENTOWN      CLEAR     67  63  87 SW3       30.17F
QUAKERTOWN*    SUNNY     64  63  94 CALM      30.19F
READING        PTCLDY    70  64  81 CALM      30.16F HAZE
LANCASTER      CLOUDY    68  66  93 E3        30.17F
COATESVILLE    SUNNY     64  64 100 CALM      30.19F
POTTSTOWN      CLOUDY    66  61  84 CALM      30.19F
BLUE BELL      CLEAR     64  63  94 CALM      30.18S
DOYLESTOWN     CLEAR     65  61  87 CALM      30.17F
WILLOW GROVE   NOT AVBL
NORTH PHILA    CLEAR     69  57  65 CALM      30.19S
PHILADELPHIA   CLEAR     72  62  71 SW6       30.17F
$$


USA.gov is the U.S. government's official web portal to all federal, state and local government web resources and services.